Flag for Brazil Weather past 2 weeks in Curitiba, Paraná, Brazil

Now
66 °F

Clear.


Feels Like: 66 °F
Forecast: 64 / 81 °F
Wind: 6 mph from East

Location: Curitiba Aeroporto

Current Time: Jan 27, 2015 at 2:31:22 AM

Latest Report: Jan 27, 2015 at 2:00 AM


Visibility: 10 mi

Pressure: 30.04 "Hg

Humidity: 88%

Dew point: 63 °F

Location of CuritibaLocation

Historic Weather in Curitiba — Graph

°F

Curitiba temperature yesterday

Maximum temperature yesterday: 82 °F (at 1:00 PM)
Minimum temperature yesterday: 61 °F (at 6:00 AM)
Average temperature yesterday: 71 °F

Past Weeks' High & Low Weather Summary

 TemperatureHumidityPressure
High91 °F (Jan 12, 5:00 PM)100% (Jan 12, 6:00 AM)30.21 "Hg (Jan 12, 6:00 AM)
Low34 °F (Jan 19, 5:00 PM)24% (Jan 12, 5:00 PM)29.95 "Hg (Jan 20, 5:00 PM)
Average72 °F75%30.09 "Hg
* Reported Jan 12 1:00 AM — Jan 27 1:00 AM, Curitiba, Weather by CustomWeather, © 2014

Note: Actual official high and low records may vary slightly from our data, if they occured in-between our weather recording intervals... More about our weather records

Advertising

Curitiba weather history for previous 24 hours

 ConditionsComfort  
Time TempWeatherWind HumidityBarometerVisibility
1:00 AM
Jan 27
68 °FClear.5 mph88%30.07 "Hg10 mi
12:00 AM70 °FClear.7 mph83%30.07 "Hg10 mi
11:00 PM
Jan 26
70 °FPassing clouds.6 mph83%30.07 "HgN/A
10:00 PM72 °FPassing clouds.8 mph73%30.04 "HgN/A
9:00 PM73 °FPartly cloudy.7 mph74%30.01 "HgN/A
8:00 PM75 °FBroken clouds.6 mph69%29.98 "HgN/A
7:00 PM77 °FBroken clouds.6 mph61%29.98 "HgN/A
6:00 PM77 °FScattered clouds.9 mph65%29.98 "HgN/A
5:00 PM73 °FPartly sunny.9 mph74%29.98 "Hg4 mi
4:00 PM77 °FScattered showers. Broken clouds.9 mph65%N/AN/A
3:00 PM82 °FPartly sunny.5 mph42%30.04 "HgN/A
2:00 PM82 °FPartly sunny.6 mph42%30.07 "HgN/A
1:00 PM82 °FScattered clouds.5 mph45%30.07 "HgN/A
12:00 PM81 °FPassing clouds.7 mph51%30.07 "HgN/A
11:00 AM77 °FSunny.7 mph57%30.07 "Hg10 mi
10:00 AM72 °FSunny.6 mph73%30.07 "Hg10 mi
9:00 AM68 °FSunny.6 mph78%30.07 "Hg10 mi
8:00 AM63 °FSunny.5 mph94%30.07 "Hg10 mi
7:00 AM61 °FScattered clouds.3 mph94%30.04 "HgN/A
6:00 AM61 °FPassing clouds.3 mph94%30.04 "HgN/A
5:00 AM63 °FPassing clouds.3 mph88%30.04 "HgN/A
4:00 AM64 °FPassing clouds.6 mph88%30.04 "HgN/A
3:00 AM64 °FClear.3 mph88%30.04 "Hg10 mi
2:00 AM64 °FClear.2 mph88%30.04 "Hg10 mi
Weather by CustomWeather, © 2014

See weather overviewHow to use our weather pages